Flag for U.S.A. Weather past 2 weeks in Nashville, Tennessee, U.S.A.

Now
37 °F

Fog.


Feels Like: 33 °F
Forecast: 36 / 44 °F
Wind: 5 mph from North

Location: Nashville International Airport

Current Time: Dec 29, 2014 at 8:44:24 AM

Latest Report: Dec 29, 2014 at 7:53 AM


Visibility: 1 mi

Pressure: 30.20 "Hg

Humidity: 100%

Dew point: 37 °F

Location of NashvilleLocation

Historic Weather in Nashville — Graph

°F

Nashville temperature yesterday

Maximum temperature yesterday: 50 °F (at 12:53 AM)
Minimum temperature yesterday: 37 °F (at 9:53 PM)
Average temperature yesterday: 42 °F

Past Weeks' High & Low Weather Summary

 TemperatureHumidityPressure
High57 °F (Dec 23, 10:53 AM)100% (Dec 15, 12:53 AM)30.33 "Hg (Dec 15, 12:53 AM)
Low25 °F (Dec 21, 4:53 AM)43% (Dec 21, 1:53 PM)29.55 "Hg (Dec 24, 4:53 AM)
Average44 °F81%30.09 "Hg
* Reported Dec 14 7:53 AM — Dec 29 7:53 AM, Nashville, Weather by CustomWeather, © 2014

Note: Actual official high and low records may vary slightly from our data, if they occured in-between our weather recording intervals... More about our weather records

Advertising

Nashville weather history for previous 24 hours

 ConditionsComfort  
Time TempWeatherWind HumidityBarometerVisibility
7:53 AM
Dec 29
37 °FFog.5 mph100%30.20 "Hg1 mi
6:53 AM37 °FFog.6 mph96%30.19 "Hg1 mi
6:04 AM37 °FFog.6 mph93%30.16 "Hg1 mi
5:53 AM37 °FFog.5 mph96%30.16 "Hg4 mi
4:53 AM37 °FFog.7 mph96%30.15 "Hg4 mi
3:53 AM37 °FFog.8 mph96%30.15 "Hg4 mi
2:53 AM37 °FFog.6 mph96%30.16 "Hg5 mi
1:53 AM37 °FFog.6 mph96%30.16 "Hg5 mi
12:53 AM37 °FLight rain. Fog.3 mph93%30.17 "Hg4 mi
11:53 PM
Dec 28
37 °FFog.6 mph96%30.17 "Hg6 mi
10:53 PM37 °FLight rain. Fog.7 mph93%30.18 "Hg6 mi
9:53 PM37 °FFog.8 mph93%30.18 "Hg6 mi
8:53 PM38 °FFog.7 mph93%30.18 "Hg6 mi
7:53 PM38 °FFog.5 mph93%30.16 "Hg5 mi
6:53 PM38 °FLow clouds.5 mph97%30.18 "Hg7 mi
5:53 PM39 °FLight rain. Mostly cloudy.9 mph93%30.19 "Hg7 mi
4:53 PM39 °FLight rain. Mostly cloudy.6 mph96%30.18 "Hg7 mi
3:53 PM40 °FLight rain. Low clouds.6 mph93%30.17 "Hg7 mi
2:53 PM40 °FLight rain. Mostly cloudy.3 mph93%30.15 "Hg8 mi
1:53 PM41 °FLight rain. Fog.7 mph93%30.13 "Hg6 mi
12:53 PM41 °FLow clouds.6 mph93%30.13 "Hg8 mi
11:53 AM41 °FLow clouds.7 mph93%30.14 "Hg9 mi
10:53 AM41 °FLight rain. Low clouds.8 mph93%30.17 "Hg9 mi
9:53 AM41 °FLight rain. Low clouds.5 mph93%30.16 "Hg10 mi
8:53 AM41 °FLight rain. Low clouds.7 mph93%30.18 "Hg9 mi
Weather by CustomWeather, © 2014

See weather overviewHow to use our weather pages